Theta_e
320 316 313 324 321 320 321 321 321 325 331 333 330 331 334 335 333 333 332 329 329 329 327 323 321 323 323 320 319 320 319 319 319 319 319 319 318 316 316 316 317 317 316 314 312 310 310 310 310
320 313 321 325 319 322 319 322 325 325 333 333 332 333 335 334 335 334 331 330 328 328 327 326 323 324 325 320 320 321 320 320 320 320 319 319 319 318 318 317 317 318 319 319 318 317 316 315 313
319 319 321 322 321 323 321 326 328 330 330 332 332 333 335 336 336 332 331 331 329 328 327 326 326 326 326 321 320 321 320 320 320 320 320 320 320 320 319 319 318 318 319 321 321 321 322 321 317
317 320 321 320 324 324 324 327 328 325 330 335 334 333 332 337 336 332 332 332 331 329 328 327 326 326 326 323 320 321 321 320 320 320 320 320 320 321 321 321 320 319 319 320 322 323 324 324 324
318 321 317 319 321 322 324 326 326 325 329 333 334 333 332 337 335 334 332 332 330 330 330 329 328 327 327 326 320 320 321 321 320 320 320 320 321 321 322 322 321 320 319 319 320 322 325 327 330
322 320 318 318 320 322 322 325 325 327 332 329 333 332 333 334 335 334 331 331 331 331 330 330 328 328 326 327 323 320 321 321 320 320 320 321 321 321 322 322 321 321 320 319 319 321 322 323 324
320 316 319 320 322 323 324 325 325 326 328 328 333 333 333 332 333 333 332 332 332 332 332 331 330 328 326 325 324 321 320 321 320 320 320 320 321 321 322 322 322 321 321 320 320 322 323 324 324
322 316 319 319 321 322 324 325 327 328 328 329 329 328 330 332 332 331 333 333 333 332 331 331 332 332 329 327 324 321 320 320 320 320 320 320 321 321 322 322 322 322 322 321 321 321 323 326 325
322 317 317 319 320 321 323 324 327 329 330 330 330 329 330 330 331 332 332 332 333 332 331 332 332 331 331 328 325 322 320 319 320 319 319 319 320 321 321 322 322 322 322 322 323 323 324 326 327
319 316 317 316 319 320 321 321 323 324 324 329 330 331 330 330 329 330 330 330 331 332 332 332 333 333 333 331 327 325 322 320 320 320 319 319 319 320 321 321 321 321 322 323 324 325 324 326 328
328 326 316 318 318 319 321 322 325 325 324 325 328 329 328 327 328 327 328 328 330 330 331 331 331 331 333 334 333 329 325 323 320 320 320 319 319 319 320 320 321 321 321 323 324 326 324 327 328
327 327 327 325 325 327 328 330 330 329 326 328 328 327 325 326 326 327 328 328 327 327 328 329 329 329 331 333 334 334 331 326 324 321 320 320 319 319 319 320 320 321 322 323 325 327 326 326 329
323 324 328 328 329 329 329 328 329 329 328 327 327 326 326 326 326 327 327 327 327 327 327 326 326 327 329 331 333 334 334 333 328 324 322 320 320 319 319 319 320 321 322 323 326 327 328 329 330
314 316 317 323 325 324 324 324 324 325 326 325 325 325 325 325 326 326 327 327 327 326 327 326 326 326 328 329 330 330 332 334 332 328 325 321 320 319 319 319 320 321 322 325 327 329 330 331 331
313 313 312 313 315 316 320 320 321 322 322 322 323 324 325 326 326 326 327 326 326 327 326 325 326 325 326 327 328 329 331 332 333 332 326 327 324 320 320 320 320 321 322 327 329 331 332 332 332
314 313 314 315 313 315 319 322 322 323 324 323 324 324 324 325 326 326 326 326 326 326 325 325 326 326 326 326 327 328 329 331 332 333 333 330 327 321 320 321 321 322 323 329 331 332 333 332 330
311 314 313 315 314 315 317 320 320 321 322 321 321 322 322 323 324 325 325 325 325 325 325 325 325 326 328 327 327 328 329 329 331 333 334 334 331 325 322 321 322 323 327 333 331 333 333 331 331
313 313 316 316 315 315 315 317 317 319 319 319 320 321 321 321 322 324 324 324 324 324 324 325 326 328 328 328 327 328 329 330 331 332 334 335 335 333 328 323 323 327 334 332 333 332 331 332 331
309 312 313 314 315 314 314 316 316 315 316 316 318 318 319 319 320 321 322 323 323 323 325 327 328 327 327 328 328 329 329 330 330 332 334 336 336 335 330 331 330 334 333 333 333 332 333 331 329
308 309 310 311 312 313 313 313 313 313 313 314 315 317 318 319 320 321 321 322 322 322 323 324 325 327 328 328 328 329 329 329 331 335 337 337 338 336 336 335 335 334 333 334 333 332 331 330 328
308 309 310 311 312 312 313 314 314 314 314 315 315 315 316 317 318 319 320 321 321 321 324 324 325 327 328 328 328 329 330 331 333 336 338 339 339 337 339 337 334 335 334 334 332 332 331 327 326
306 308 310 312 313 313 313 315 314 314 314 313 314 315 315 317 318 319 320 320 321 321 322 324 324 325 327 327 328 329 329 329 331 334 337 340 340 340 337 335 333 333 334 333 332 331 326 325 325
307 308 308 309 308 309 311 312 314 312 312 312 313 314 314 315 316 317 318 318 319 321 323 323 324 324 325 327 328 330 332 335 336 336 340 341 341 337 335 334 334 334 332 331 330 324 323 322 322
307 308 308 309 308 310 309 311 312 311 312 314 313 314 315 316 317 318 320 321 321 322 324 326 326 325 325 327 329 332 335 337 339 340 341 341 336 334 333 334 334 333 332 328 323 322 321 323 323
305 304 307 309 310 310 310 311 311 311 312 313 314 315 317 318 318 319 319 319 325 329 329 328 328 329 331 333 337 339 340 340 340 340 339 337 334 334 333 331 332 330 327 324 322 321 323 323 323
305 304 306 312 311 310 311 313 312 312 312 314 315 316 316 317 318 318 319 328 334 337 336 336 336 336 340 342 343 343 342 341 340 339 337 334 333 332 332 329 327 325 325 323 322 322 324 325 324
307 305 306 305 307 307 310 311 312 313 313 313 312 316 316 317 318 321 332 338 342 340 340 340 340 342 343 343 343 343 342 341 340 336 334 334 334 331 328 325 324 324 323 323 323 325 326 325 325
308 306 306 303 307 311 311 311 312 313 313 313 313 314 320 317 324 334 338 342 342 341 341 342 342 342 342 342 341 341 340 338 335 334 333 332 329 328 325 323 323 323 325 326 327 327 326 325 324
309 307 307 304 305 311 313 312 311 312 314 313 320 329 321 321 336 339 340 340 340 341 342 341 341 341 340 339 339 337 335 334 333 332 329 327 325 324 324 323 325 326 327 327 327 327 327 326 323
307 308 307 307 308 306 307 308 310 311 311 312 314 331 329 332 342 339 340 340 341 342 342 341 340 338 335 334 333 333 332 331 329 328 327 325 323 322 324 325 325 325 326 327 327 327 328 327 325
Wind_Speed
6 5 7 6 2 4 3 6 2 4 3 4 6 6 11 9 7 5 17 17 14 16 18 25 24 20 16 14 14 12 11 11 10 9 9 9 8 8 7 6 5 3 2 1 2 3 4 5 5
6 6 5 2 4 2 5 4 4 5 3 14 8 8 5 5 6 6 20 19 11 14 18 20 23 21 19 16 16 15 13 12 10 9 9 7 7 6 6 6 5 4 3 1 1 1 2 3 3
8 7 2 3 4 5 5 4 3 5 16 5 3 4 4 4 12 19 20 18 13 14 16 16 19 21 20 19 18 17 15 14 11 10 9 8 7 5 6 6 5 4 2 1 1 1 2 3 3
10 4 1 2 6 6 6 6 0 7 8 3 7 3 1 3 11 18 19 18 15 12 14 15 18 20 22 21 19 19 18 16 14 13 11 9 8 6 5 5 5 3 1 1 0 1 3 4 4
10 2 1 2 5 6 5 8 7 6 5 5 0 3 3 5 17 14 19 15 12 9 10 15 17 17 22 24 23 22 20 19 18 16 13 12 9 8 5 4 3 3 2 2 2 2 3 5 6
4 4 0 5 5 5 7 11 4 4 4 10 4 7 3 10 14 9 14 10 9 11 10 15 18 20 25 27 26 24 24 22 21 19 16 14 12 9 7 5 3 1 2 3 2 2 4 5 8
5 4 4 3 3 4 6 8 5 4 4 7 4 2 2 1 9 10 11 13 10 12 14 15 18 23 28 30 30 28 27 25 24 22 20 18 16 13 11 7 4 2 1 2 3 2 4 6 8
5 4 2 5 5 6 5 3 12 7 3 9 11 4 5 7 7 9 14 14 14 14 15 19 21 25 28 32 33 32 30 28 27 26 25 22 20 17 14 11 8 6 4 3 3 3 4 5 6
7 2 5 6 7 5 2 4 9 6 9 8 9 12 16 15 6 12 15 18 21 22 24 24 27 30 29 32 36 35 34 32 31 30 29 26 26 22 19 15 12 9 7 6 5 5 4 4 4
6 5 10 7 7 4 5 5 16 8 13 3 19 26 28 14 11 13 18 20 24 28 28 28 27 31 32 34 37 38 39 37 37 36 34 33 31 27 23 19 16 13 11 10 8 8 7 5 5
9 10 8 8 13 8 6 12 12 14 6 14 22 32 26 16 25 19 22 24 21 19 24 29 30 31 32 37 39 41 43 43 42 40 38 36 34 32 29 24 21 17 14 12 12 11 9 7 6
6 16 19 11 8 5 6 8 11 22 18 29 33 36 38 37 29 26 23 20 20 26 22 21 26 33 34 40 41 45 46 47 46 45 43 42 40 36 32 28 24 20 16 15 16 13 11 9 8
13 6 16 23 17 16 17 21 17 30 27 32 34 38 40 40 38 32 26 21 25 23 18 25 24 26 32 37 43 46 46 49 50 48 47 45 44 40 36 31 27 23 19 18 18 15 14 11 10
1 9 16 14 17 12 10 21 15 23 25 29 33 39 40 39 36 33 31 27 27 27 32 34 32 31 31 36 39 42 46 48 52 51 50 49 48 43 36 32 30 24 21 20 16 16 15 13 13
10 5 3 7 6 8 15 22 31 30 27 30 36 41 43 42 33 31 27 27 31 35 34 38 41 37 32 34 36 37 44 47 48 52 52 46 52 47 37 32 29 25 21 20 18 17 17 16 15
5 5 12 14 10 8 11 31 16 20 26 35 38 30 32 36 35 34 35 37 37 36 41 44 38 36 33 34 35 37 39 45 44 44 49 50 50 46 37 33 31 25 25 21 19 17 17 16 16
4 14 6 4 9 7 18 33 2 16 19 22 27 35 39 42 44 42 39 35 36 41 43 39 40 36 31 30 32 34 40 37 40 44 45 46 46 38 35 34 29 27 26 20 16 16 16 17 17
6 3 2 4 7 15 15 28 11 24 27 25 31 37 40 41 41 39 40 43 44 38 40 35 31 26 28 28 31 36 34 32 36 40 43 40 37 26 28 28 29 24 22 18 15 13 15 18 19
4 3 3 3 1 4 14 19 14 13 21 20 30 33 39 41 47 43 40 33 36 33 32 27 25 27 32 30 30 33 31 33 36 38 38 34 22 21 24 27 26 24 22 17 13 14 17 18 19
7 0 3 5 8 4 4 11 14 13 17 26 28 29 32 38 38 40 40 39 34 34 33 31 31 30 31 28 30 31 32 33 34 35 29 23 18 22 21 24 23 21 19 17 15 15 17 19 18
4 4 3 6 7 13 10 18 14 15 19 27 30 35 40 39 40 39 37 35 33 35 31 30 28 29 28 25 28 31 30 29 30 31 23 18 21 20 23 18 18 19 17 15 14 15 17 17 14
7 4 2 2 1 5 3 13 19 18 20 17 22 31 37 38 38 40 39 38 36 37 38 33 27 27 29 29 30 30 31 30 29 20 18 19 21 22 16 20 16 17 15 13 13 16 16 12 11
7 9 9 8 7 4 5 5 17 5 8 11 16 30 35 44 43 45 46 45 39 37 36 37 33 29 32 31 27 27 26 21 16 15 18 21 21 18 19 18 17 16 12 14 16 14 10 11 10
5 5 4 2 3 4 8 9 24 7 13 15 9 25 31 32 30 28 22 23 30 32 31 20 14 19 23 23 21 18 17 16 15 18 23 25 18 20 20 18 15 13 14 14 11 10 9 8 7
5 5 2 1 2 8 10 11 23 7 9 6 8 16 17 17 20 20 20 28 23 15 9 7 9 12 13 13 12 11 10 10 14 20 25 21 20 21 16 11 14 12 12 9 9 9 8 7 6
6 7 4 6 5 5 6 11 7 12 14 15 15 21 25 25 21 22 21 15 6 5 7 11 13 15 15 15 16 14 12 13 17 16 14 14 13 12 13 10 10 9 9 8 8 8 6 7 8
3 4 7 2 3 1 5 6 7 15 13 11 10 19 28 27 20 15 8 6 10 12 14 15 17 18 19 18 17 16 15 14 15 15 13 15 15 11 8 7 9 9 8 7 6 5 5 8 9
4 3 2 1 4 5 5 5 6 9 4 8 10 12 26 16 12 11 13 16 16 15 16 16 16 19 20 19 19 19 18 16 16 16 16 15 12 9 8 9 9 8 7 5 4 5 7 8 9
3 3 2 3 5 3 3 5 6 8 4 6 14 29 23 13 15 18 21 20 18 18 18 19 19 21 21 20 20 20 19 17 16 16 14 11 8 8 9 11 9 7 4 4 5 7 9 8 8
3 3 5 4 6 4 4 6 7 3 8 12 15 21 9 15 20 25 24 22 20 21 21 22 22 22 21 20 20 19 18 16 14 12 11 10 10 12 13 10 6 2 4 6 9 10 11 10 10
Wind_Direction
207 203 159 154 75 62 245 258 235 289 310 304 172 150 173 165 164 211 158 166 176 194 198 195 193 192 194 190 185 183 175 170 160 154 149 142 136 123 106 99 100 111 135 206 226 239 245 243 248
196 182 160 167 112 123 259 257 224 224 273 308 298 124 146 201 191 162 160 167 165 195 195 195 196 199 204 199 195 195 192 190 181 174 165 152 134 120 106 90 83 91 115 132 196 237 262 266 258
175 171 183 166 157 193 219 196 239 273 298 240 245 248 173 184 173 162 164 171 178 180 187 194 198 207 211 206 205 205 203 201 201 195 188 171 157 143 119 94 80 74 96 129 169 219 252 265 267
160 175 195 134 223 250 199 204 339 299 326 166 190 166 178 160 167 163 174 180 181 179 185 198 202 209 215 216 213 214 214 212 211 210 203 190 179 167 140 101 78 55 85 107 16 247 255 257 256
157 153 224 235 258 275 243 257 276 287 281 304 252 200 148 138 150 167 179 183 188 179 183 201 207 216 223 223 220 219 220 220 218 215 215 205 198 189 164 132 102 59 19 21 359 317 280 270 262
146 134 153 231 238 277 279 255 236 252 276 336 138 158 167 173 194 200 193 199 208 214 210 210 215 223 222 226 226 225 226 225 223 222 221 217 213 207 200 182 156 93 9 346 344 327 297 280 271
155 129 212 241 223 246 249 249 202 226 27 18 34 90 197 202 214 204 213 218 227 224 227 231 229 229 228 228 229 231 229 229 228 227 226 224 222 218 218 211 207 216 274 317 320 325 326 296 276
205 135 218 223 208 246 240 278 183 129 234 328 343 62 326 67 196 223 231 236 241 245 250 248 241 235 236 232 231 233 232 234 233 232 230 228 228 225 225 223 226 233 248 268 283 304 326 312 294
184 126 215 213 183 249 314 322 209 273 270 301 312 299 298 331 321 250 256 260 255 245 244 244 244 238 239 240 236 234 234 236 236 234 232 232 232 229 230 229 232 239 247 255 261 278 292 311 314
178 181 215 204 201 242 273 313 317 324 332 268 292 290 289 254 283 278 276 274 261 255 252 254 253 248 245 241 242 239 238 236 236 235 235 236 236 234 234 232 234 240 245 252 262 265 274 291 294
201 221 211 229 218 236 267 299 291 304 318 287 280 285 286 268 268 274 284 277 259 274 268 261 261 258 251 248 247 244 242 240 239 239 239 239 238 235 232 232 234 239 246 255 260 262 273 277 283
214 224 218 234 199 226 259 290 284 282 269 283 283 280 286 288 281 272 279 280 273 278 271 267 273 267 255 250 249 247 246 243 243 241 240 240 239 235 235 235 237 241 248 253 257 261 266 275 278
235 215 215 231 237 245 266 258 256 265 268 272 271 276 279 281 279 277 276 272 284 277 276 288 288 282 262 252 251 251 249 249 247 244 244 241 242 239 239 237 238 244 249 256 253 261 261 268 274
51 226 239 236 245 241 250 269 258 254 263 270 275 275 275 275 279 280 280 276 274 282 291 296 294 291 271 261 259 257 252 252 250 248 247 245 245 242 241 241 242 245 253 256 257 262 262 268 271
263 279 265 221 216 236 234 267 250 254 260 260 260 267 272 273 277 276 277 279 284 291 299 300 300 297 285 279 269 261 255 252 253 251 248 251 250 244 242 243 243 249 257 258 255 258 264 267 274
190 174 237 232 185 217 168 259 261 252 239 248 260 260 263 274 275 276 279 284 289 293 298 299 297 297 288 276 270 264 261 255 253 254 251 251 253 245 242 242 242 241 246 246 254 261 264 272 277
251 235 214 249 206 182 190 249 203 267 263 258 271 277 278 277 277 277 279 284 287 293 294 294 293 292 286 272 262 263 260 258 250 250 252 252 253 248 243 241 242 244 235 236 246 259 266 269 279
202 170 159 190 200 198 219 248 259 266 270 271 271 271 273 274 273 278 281 286 291 289 289 284 283 288 290 273 254 252 255 248 244 247 250 252 256 255 241 236 233 230 227 237 247 263 264 269 278
44 97 63 343 231 353 235 254 260 263 269 267 266 264 267 269 276 280 282 283 285 286 289 279 276 278 279 263 249 246 242 234 238 245 249 252 256 240 223 224 220 210 230 236 252 254 258 272 285
271 234 237 276 267 231 275 275 277 255 260 260 263 267 267 274 276 279 280 278 278 287 287 285 279 272 275 262 250 246 238 233 240 246 251 254 234 221 222 221 207 208 220 234 247 258 265 279 285
189 201 187 222 291 285 300 286 270 264 247 255 257 261 264 263 270 274 274 279 281 285 285 289 281 268 259 252 246 240 234 238 243 244 240 227 219 211 211 207 206 216 225 245 259 266 277 282 277
238 180 270 329 171 257 37 289 273 272 264 255 253 253 257 263 267 269 273 276 280 285 285 282 279 257 252 249 242 239 236 236 240 245 230 213 208 203 199 195 205 214 233 256 269 276 279 268 262
236 177 207 221 257 283 254 311 278 202 261 263 252 256 256 259 263 268 274 277 278 276 277 279 273 245 240 239 237 237 239 241 242 224 199 201 197 191 195 197 211 222 249 264 277 274 261 262 259
202 183 157 82 137 250 218 197 276 226 243 243 259 255 258 262 268 273 275 277 281 281 278 262 244 225 225 228 228 232 237 228 206 187 191 185 184 196 197 201 213 235 254 267 260 250 244 249 256
184 115 123 107 197 229 187 188 236 261 302 239 265 276 271 273 277 275 283 286 284 263 251 213 185 186 186 191 188 183 187 191 191 182 179 183 178 184 191 210 228 247 255 237 236 230 234 246 266
192 167 168 174 192 213 209 229 249 240 246 277 282 281 281 278 277 272 277 278 244 163 151 144 142 150 147 149 148 150 159 170 174 178 165 163 169 183 196 230 239 227 219 217 223 223 241 263 264
178 177 210 356 289 88 215 280 299 278 273 294 302 297 289 280 256 264 246 177 150 139 134 140 141 138 139 146 144 143 153 162 155 155 155 165 179 192 205 207 187 195 203 210 209 225 252 269 265
175 198 132 308 208 234 253 253 233 305 350 330 317 300 303 276 218 196 168 154 149 144 142 140 139 140 141 141 142 144 148 151 156 161 166 175 187 193 192 178 175 180 181 199 237 257 268 272 257
170 261 230 187 182 209 300 275 229 242 65 324 342 333 310 219 175 166 158 154 153 150 146 144 142 139 139 141 141 143 149 158 164 168 174 179 173 175 166 160 158 162 185 246 275 276 273 264 242
351 269 201 192 251 258 112 289 292 3 33 358 338 337 335 177 160 159 156 152 152 151 150 145 141 137 137 139 141 146 152 158 166 174 170 158 152 148 155 157 162 213 277 284 281 281 269 246 234